Overview Statistics Trail Chart Weather Telemetry Raw packets
 

This is the latest recevied weather packets stored in our database for station/object IU3OVK-13. If no packets are shown the sender has not sent any weather packets the latest 10 day(s).

<< 30 31 32 33 34 35 36 >>
Time Temp. Humidity Pressure Rain* Wind** Luminosity Snow
1788016263 28.33° C 99% 1006.4 hPa - - - -
1788015643 28.33° C 99% 1006.3 hPa - - - -
1788015022 28.89° C 99% 1006.1 hPa - - - -
1788014402 28.89° C 99% 1006.3 hPa - - - -
1788013782 28.33° C 99% 1006.1 hPa - - - -
1788011922 28.33° C 99% 1006.3 hPa - - - -
1788011301 27.78° C 99% 1006.3 hPa - - - -
1788010681 29.44° C 99% 1006.1 hPa - - - -
1788008820 29.44° C 99% 1006.3 hPa - - - -
1788008200 29.44° C 99% 1006.6 hPa - - - -
1788007580 29.44° C 99% 1006.7 hPa - - - -
1788006960 29.44° C 99% 1006.3 hPa - - - -
1788006340 30° C 99% 1005.8 hPa - - - -
1788005720 30.56° C 99% 1005.7 hPa - - - -
1788004479 29.44° C 99% 1006.8 hPa - - - -
1788003859 30° C 99% 1007 hPa - - - -
1788003239 33.33° C 99% 1005.5 hPa - - - -
1788002619 32.78° C 99% 1006.4 hPa - - - -
1788001998 32.22° C 99% 1006.6 hPa - - - -
1788001376 37.78° C 94% 1007.1 hPa - - - -
1788000756 42.22° C 82% 1005 hPa - - - -
1788000136 42.78° C 77% 997 hPa - - - -
1787999515 42.78° C 78% 999.3 hPa - - - -
1787998275 43.33° C 79% 999.1 hPa - - - -
1787997653 45.56° C 76% 990.5 hPa - - - -

* Rain since midnight (hover to see other rain measurements)
** Current wind speed in m/s (hover to see current wind gust speed)